Flag for U.S.A. Weather past 2 weeks in Oceanside, California, U.S.A.

Now
51 °F

Overcast.


Feels Like: 51 °F
Forecast: 47 / 61 °F
Wind: No wind

Location: Oceanside Weather Reporting Station

Current Time: Dec 18, 2014 at 4:02:06 AM

Latest Report: Dec 18, 2014 at 2:52 AM


Visibility: 10 mi

Pressure: 30.12 "Hg

Humidity: 92%

Dew point: 49 °F

Location of OceansideLocation

Historic Weather in Oceanside — Graph

°F

Oceanside temperature yesterday

Maximum temperature yesterday: 64 °F (at 1:52 PM)
Minimum temperature yesterday: 48 °F (at 11:52 PM)
Average temperature yesterday: 57 °F

Past Weeks' High & Low Weather Summary

 TemperatureHumidityPressure
High77 °F (Dec 7, 11:52 AM)100% (Dec 12, 6:55 AM)30.21 "Hg (Dec 12, 6:55 AM)
Low42 °F (Dec 14, 5:52 AM)36% (Dec 9, 11:52 AM)29.88 "Hg (Dec 12, 4:52 AM)
Average58 °F82%30.03 "Hg
* Reported Dec 3 1:59 AM — Dec 18 1:52 AM, Oceanside, Weather by CustomWeather, © 2014

Note: Actual official high and low records may vary slightly from our data, if they occured in-between our weather recording intervals... More about our weather records

Advertising

Oceanside weather history for previous 24 hours

 ConditionsComfort  
Time TempWeatherWind HumidityBarometerVisibility
1:52 AM
Dec 18
52 °FMostly cloudy.No wind89%30.11 "Hg10 mi
12:52 AM49 °FLight rain. Mostly cloudy.No wind90%30.11 "Hg10 mi
11:52 PM
Dec 17
48 °FClear.3 mph89%30.11 "Hg10 mi
10:52 PM50 °FClear.No wind86%30.12 "Hg10 mi
9:52 PM52 °FPassing clouds.No wind83%30.12 "Hg10 mi
8:52 PM54 °FOvercast.No wind80%30.10 "Hg10 mi
7:52 PM56 °FMostly cloudy.No wind75%30.09 "Hg10 mi
6:52 PM60 °FOvercast.No wind60%30.08 "Hg10 mi
5:52 PM60 °FPassing clouds.5 mph62%30.08 "Hg10 mi
4:52 PM61 °FPartly cloudy.6 mph60%30.07 "Hg10 mi
3:52 PM62 °FPassing clouds.7 mph65%30.06 "Hg10 mi
2:52 PM62 °FSunny.12 mph62%30.06 "Hg10 mi
1:52 PM64 °FSunny.9 mph58%30.05 "Hg10 mi
12:52 PM63 °FPassing clouds.12 mph65%30.04 "Hg10 mi
11:52 AM63 °FSunny.8 mph68%30.04 "Hg10 mi
10:52 AM63 °FScattered clouds.10 mph70%30.06 "Hg10 mi
9:52 AM61 °FPartly sunny.5 mph75%30.05 "Hg10 mi
8:52 AM59 °FCloudy.6 mph81%30.04 "Hg10 mi
7:52 AM56 °FMostly cloudy.No wind87%30.02 "Hg10 mi
6:52 AM54 °FPartly sunny.No wind93%30.00 "Hg10 mi
5:52 AM56 °FMostly cloudy.7 mph87%29.98 "Hg10 mi
4:52 AM57 °FRain. Mostly cloudy.12 mph83%29.97 "Hg4 mi
Weather by CustomWeather, © 2014

See weather overviewHow to use our weather pages